This is the latest recevied weather packets stored in our database for station/object KQ4JKJ. If no packets are shown the sender has not sent any weather packets the latest 10 day(s).
| Time | Temp. | Humidity | Pressure | Rain* | Wind** | Luminosity | Snow |
|---|---|---|---|---|---|---|---|
| 1777749097 | 26.11° C | 80% | 1004.7 hPa | 0 mm | - | 220 W/m² | - |
| 1777748795 | 26.11° C | 76% | 1004.7 hPa | 0 mm | - | 97 W/m² | - |
| 1777748493 | 26.67° C | 73% | 1005.1 hPa | 0 mm | - | 83 W/m² | - |
| 1777748192 | 26.67° C | 72% | 1005 hPa | 0 mm | - | 83 W/m² | - |
| 1777747884 | 27.22° C | 71% | 1005.1 hPa | 0 mm | - | 151 W/m² | - |
| 1777747580 | 28.33° C | 68% | 1005 hPa | 0 mm | - | 34 W/m² | - |
| 1777747275 | 30° C | 66% | 1004.9 hPa | 0 mm | - | 42 W/m² | - |
| 1777746972 | 30.56° C | 68% | 1004.6 hPa | 0 mm | - | 135 W/m² | - |
| 1777746669 | 30.56° C | 68% | 1004.4 hPa | 0 mm | - | 202 W/m² | - |
| 1777746364 | 30.56° C | 70% | 1004.2 hPa | 0 mm | - | 183 W/m² | - |
| 1777746060 | 30.56° C | 68% | 1004.2 hPa | 0 mm | - | 158 W/m² | - |
| 1777745758 | 31.11° C | 67% | 1004.3 hPa | 0 mm | - | 189 W/m² | - |
| 1777745456 | 31.67° C | 66% | 1004.4 hPa | 0 mm | - | 215 W/m² | - |
| 1777745153 | 31.67° C | 66% | 1004.5 hPa | 0 mm | - | 271 W/m² | - |
| 1777744849 | 31.67° C | 67% | 1004.3 hPa | 0 mm | - | 303 W/m² | - |
| 1777744544 | 31.67° C | 66% | 1004.3 hPa | 0 mm | - | 334 W/m² | - |
| 1777744239 | 31.67° C | 67% | 1004.4 hPa | 0 mm | - | 323 W/m² | - |
| 1777743932 | 31.11° C | 67% | 1004.6 hPa | 0 mm | - | 314 W/m² | - |
| 1777743628 | 31.11° C | 67% | 1004.4 hPa | 0 mm | - | 340 W/m² | - |
| 1777743325 | 31.11° C | 67% | 1004.7 hPa | 0 mm | - | 376 W/m² | - |
| 1777743024 | 31.11° C | 68% | 1004.7 hPa | 0 mm | - | 268 W/m² | - |
| 1777742720 | 31.11° C | 68% | 1004.8 hPa | 0 mm | - | 210 W/m² | - |
| 1777742416 | 32.22° C | 65% | 1004.9 hPa | 0 mm | - | 287 W/m² | - |
| 1777742112 | 32.22° C | 65% | 1004.7 hPa | 0 mm | - | 521 W/m² | - |
| 1777741810 | 33.33° C | 64% | 1005 hPa | 0 mm | - | 500 W/m² | - |
* Rain latest hour (hover to see other rain measurements)
** Current wind speed in m/s (hover to see current wind gust speed)